Tiempo cada hora Abramovka

Hoy, 31 Octubre, Sábado

Tiempo Temperatura Precipitaciones Viento Presión Humedad
00:00 +9°C° 0.5 mm 3 mps 746 mmHg 87%
01:00 +9°C° 0.1 mm 3 mps 746 mmHg 90%
02:00 +9°C° 0.1 mm 3 mps 746 mmHg 92%
03:00 +9°C° 0.1 mm 3 mps 745 mmHg 94%
04:00 +9°C° 0 mm 2 mps 745 mmHg 95%
05:00 +9°C° 0 mm 2 mps 745 mmHg 95%
06:00 +9°C° 0 mm 2 mps 745 mmHg 96%
07:00 +9°C° 0 mm 2 mps 746 mmHg 95%
08:00 +9°C° 0 mm 2 mps 746 mmHg 95%
09:00 +11°C° 0 mm 1 mps 746 mmHg 94%
10:00 +12°C° 0 mm 1 mps 746 mmHg 90%
11:00 +13°C° 0 mm 1 mps 746 mmHg 85%
12:00 +14°C° 0 mm 2 mps 746 mmHg 81%
13:00 +14°C° 0 mm 2 mps 746 mmHg 82%
14:00 +14°C° 0 mm 2 mps 746 mmHg 82%
15:00 +14°C° 0 mm 2 mps 746 mmHg 83%
16:00 +13°C° 0 mm 3 mps 747 mmHg 87%
17:00 +12°C° 0 mm 3 mps 747 mmHg 91%
18:00 +11°C° 0 mm 3 mps 747 mmHg 94%
19:00 +11°C° 0.2 mm 3 mps 747 mmHg 95%
20:00 +11°C° 0.2 mm 4 mps 747 mmHg 95%
21:00 +11°C° 0.2 mm 4 mps 747 mmHg 96%
22:00 +11°C° 0.4 mm 4 mps 747 mmHg 96%
23:00 +11°C° 0.4 mm 4 mps 747 mmHg 96%

Mañana, 1 Noviembre, Domingo

Tiempo Temperatura Precipitaciones Viento Presión Humedad
00:00 +12°C° 0.4 mm 5 mps 747 mmHg 96%
01:00 +12°C° 0.1 mm 5 mps 747 mmHg 94%
02:00 +10°C° 0.1 mm 5 mps 747 mmHg 92%
03:00 +10°C° 0.1 mm 5 mps 748 mmHg 91%
04:00 +10°C° 0.3 mm 5 mps 747 mmHg 89%
05:00 +10°C° 0.3 mm 5 mps 747 mmHg 87%
06:00 +9°C° 0.3 mm 5 mps 747 mmHg 85%
07:00 +9°C° 0.6 mm 5 mps 748 mmHg 86%
08:00 +9°C° 0.6 mm 5 mps 748 mmHg 88%
09:00 +10°C° 0.6 mm 4 mps 748 mmHg 89%
10:00 +10°C° 0.1 mm 4 mps 749 mmHg 87%
11:00 +11°C° 0.1 mm 4 mps 749 mmHg 84%
12:00 +11°C° 0.1 mm 4 mps 749 mmHg 82%
13:00 +11°C° 0 mm 4 mps 749 mmHg 81%
14:00 +11°C° 0 mm 3 mps 749 mmHg 80%
15:00 +11°C° 0 mm 3 mps 749 mmHg 79%
16:00 +11°C° 0 mm 3 mps 749 mmHg 79%
17:00 +10°C° 0 mm 3 mps 749 mmHg 79%
18:00 +10°C° 0 mm 3 mps 750 mmHg 79%
19:00 +8°C° 0 mm 4 mps 750 mmHg 81%
20:00 +8°C° 0 mm 4 mps 750 mmHg 82%
21:00 +7°C° 0 mm 4 mps 750 mmHg 84%
22:00 +7°C° 0 mm 4 mps 750 mmHg 83%
23:00 +6°C° 0 mm 4 mps 750 mmHg 83%

Pasado mañana, 2 Noviembre, Lunes

Tiempo Temperatura Precipitaciones Viento Presión Humedad
00:00 +6°C° 0 mm 4 mps 750 mmHg 82%
01:00 +6°C° 0 mm 4 mps 750 mmHg 80%
02:00 +7°C° 0 mm 3 mps 749 mmHg 78%
03:00 +7°C° 0 mm 3 mps 749 mmHg 77%
04:00 +6°C° 0.2 mm 4 mps 749 mmHg 75%
05:00 +6°C° 0.2 mm 4 mps 749 mmHg 74%
06:00 +6°C° 0.2 mm 4 mps 749 mmHg 72%
07:00 +6°C° 0.9 mm 4 mps 749 mmHg 77%
08:00 +5°C° 0.9 mm 4 mps 749 mmHg 83%
09:00 +5°C° 0.9 mm 3 mps 749 mmHg 89%
10:00 +6°C° 0.6 mm 4 mps 750 mmHg 87%
11:00 +7°C° 0.6 mm 4 mps 750 mmHg 86%
12:00 +7°C° 0.6 mm 4 mps 750 mmHg 84%
13:00 +8°C° 0 mm 4 mps 750 mmHg 83%
14:00 +10°C° 0 mm 3 mps 750 mmHg 81%
15:00 +11°C° 0 mm 3 mps 750 mmHg 80%
16:00 +10°C° 0 mm 4 mps 750 mmHg 84%
17:00 +8°C° 0 mm 4 mps 750 mmHg 88%
18:00 +7°C° 0 mm 4 mps 750 mmHg 93%
19:00 +7°C° 0 mm 5 mps 751 mmHg 92%
20:00 +7°C° 0 mm 5 mps 751 mmHg 91%
21:00 +7°C° 0 mm 5 mps 751 mmHg 91%
22:00 +8°C° 0.2 mm 5 mps 751 mmHg 90%
23:00 +8°C° 0.2 mm 5 mps 751 mmHg 89%

3 Noviembre, Martes

Tiempo Temperatura Precipitaciones Viento Presión Humedad
00:00 +8°C° 0.2 mm 5 mps 751 mmHg 88%
01:00 +8°C° 0.4 mm 5 mps 751 mmHg 88%
02:00 +8°C° 0.4 mm 5 mps 751 mmHg 88%
03:00 +8°C° 0.4 mm 5 mps 751 mmHg 89%
04:00 +8°C° 0.7 mm 5 mps 751 mmHg 90%
05:00 +8°C° 0.7 mm 5 mps 751 mmHg 92%
06:00 +8°C° 0.7 mm 5 mps 751 mmHg 93%
07:00 +8°C° 0.1 mm 5 mps 751 mmHg 92%
08:00 +8°C° 0.1 mm 5 mps 751 mmHg 91%
09:00 +8°C° 0.1 mm 5 mps 751 mmHg 90%
10:00 +9°C° 0.1 mm 5 mps 752 mmHg 87%
11:00 +10°C° 0.1 mm 5 mps 752 mmHg 84%
12:00 +12°C° 0.1 mm 5 mps 752 mmHg 80%
13:00 +12°C° 0.2 mm 5 mps 752 mmHg 79%
14:00 +12°C° 0.2 mm 5 mps 752 mmHg 77%
15:00 +13°C° 0.2 mm 5 mps 752 mmHg 76%
16:00 +12°C° 0.1 mm 5 mps 752 mmHg 79%
17:00 +11°C° 0.1 mm 4 mps 753 mmHg 81%
18:00 +11°C° 0.1 mm 4 mps 753 mmHg 84%
19:00 +10°C° 0.2 mm 4 mps 753 mmHg 86%
20:00 +10°C° 0.2 mm 4 mps 753 mmHg 87%
21:00 +10°C° 0.2 mm 4 mps 754 mmHg 88%
22:00 +10°C° 0 mm 4 mps 754 mmHg 86%
23:00 +10°C° 0 mm 4 mps 754 mmHg 84%

4 Noviembre, Miércoles

Tiempo Temperatura Precipitaciones Viento Presión Humedad
00:00 +8°C° 0 mm 4 mps 754 mmHg 82%
01:00 +8°C° 0 mm 4 mps 754 mmHg 83%
02:00 +9°C° 0 mm 3 mps 754 mmHg 84%
03:00 +8°C° 0 mm 3 mps 754 mmHg 84%
04:00 +8°C° 0 mm 3 mps 754 mmHg 84%
05:00 +7°C° 0 mm 3 mps 755 mmHg 84%
06:00 +7°C° 0 mm 3 mps 755 mmHg 83%
07:00 +7°C° 0 mm 3 mps 755 mmHg 81%
08:00 +8°C° 0 mm 3 mps 755 mmHg 79%
09:00 +8°C° 0 mm 2 mps 755 mmHg 76%
10:00 +9°C° 0 mm 3 mps 755 mmHg 72%
11:00 +10°C° 0 mm 3 mps 755 mmHg 68%
12:00 +11°C° 0 mm 3 mps 755 mmHg 64%
13:00 +12°C° 0 mm 2 mps 755 mmHg 63%
14:00 +12°C° 0 mm 2 mps 755 mmHg 63%
15:00 +12°C° 0 mm 2 mps 755 mmHg 62%
16:00 +12°C° 0 mm 2 mps 755 mmHg 65%
17:00 +10°C° 0 mm 2 mps 755 mmHg 68%
18:00 +9°C° 0 mm 2 mps 755 mmHg 71%
19:00 +9°C° 0 mm 2 mps 756 mmHg 72%
20:00 +8°C° 0 mm 2 mps 756 mmHg 73%
21:00 +8°C° 0 mm 2 mps 756 mmHg 74%
22:00 +8°C° 0 mm 2 mps 756 mmHg 75%
23:00 +7°C° 0 mm 2 mps 756 mmHg 76%

5 Noviembre, Jueves

Tiempo Temperatura Precipitaciones Viento Presión Humedad
00:00 +7°C° 0 mm 2 mps 756 mmHg 77%
01:00 +7°C° 0 mm 2 mps 755 mmHg 79%
02:00 +7°C° 0 mm 2 mps 755 mmHg 80%
03:00 +6°C° 0 mm 2 mps 755 mmHg 81%
04:00 +6°C° 0 mm 2 mps 755 mmHg 82%
05:00 +6°C° 0 mm 2 mps 755 mmHg 83%
06:00 +5°C° 0 mm 2 mps 755 mmHg 85%
07:00 +5°C° 0 mm 3 mps 755 mmHg 82%
08:00 +5°C° 0 mm 3 mps 755 mmHg 79%
09:00 +5°C° 0 mm 3 mps 755 mmHg 77%
10:00 +7°C° 0 mm 3 mps 755 mmHg 72%
11:00 +8°C° 0 mm 3 mps 755 mmHg 67%
12:00 +9°C° 0 mm 2 mps 755 mmHg 62%
13:00 +9°C° 0 mm 3 mps 754 mmHg 62%
14:00 +10°C° 0 mm 3 mps 754 mmHg 61%
15:00 +10°C° 0 mm 3 mps 754 mmHg 61%
16:00 +9°C° 0 mm 3 mps 754 mmHg 66%
17:00 +8°C° 0 mm 3 mps 754 mmHg 71%
18:00 +8°C° 0 mm 3 mps 753 mmHg 76%
19:00 +7°C° 0 mm 3 mps 753 mmHg 79%
20:00 +7°C° 0 mm 3 mps 753 mmHg 82%
21:00 +5°C° 0 mm 3 mps 753 mmHg 85%
22:00 +5°C° 0 mm 3 mps 753 mmHg 87%
23:00 +5°C° 0 mm 3 mps 753 mmHg 89%
Mostrar más

Necesitamos Su Consentimiento

Meteoprog y nuestros Proveedores de Servicios pueden almacenar y acceder a sus datos personales como cookies, identificadores de dispositivo u otras tecnologías similares de su dispositivo y procesar dichos datos para personalizar contenido y anuncios, además de ofrecer funciones de redes sociales y analizar el tráfico.

  • Almacenar y/o acceder a información en su dispositivo

    Se puede almacenar o acceder a cookies, identificadores de dispositivo u otra información de su dispositivo para los fines anteriormente indicados.

  • Anuncios y contenido personalizados, medición de anuncios y contenido, percepciones del público, y desarrollo de productos

    Los anuncios y el contenido pueden personalizarse en base a su perfil. Se pueden añadir más datos para personalizar mejor los anuncios y contenidos. Se puede medir el rendimiento de los anuncios y contenidos. Se puede obtener la percepción sobre el público que ha visto los anuncios y contenidos. Dichos datos pueden usarse para desarrollar o mejorar la experiencia del usuario, sistemas y software.

Al hacer clic en ‘Estoy De Acuerdo’ usted permitirá el uso de las cookies, identificadores de dispositivo, balizas web u otras tecnologías similares indicadas. Su configuración puede cambiarse desde el navegador de su dispositivo.

Para ciertos fines, los intereses legítimos pueden ser considerados por encima del consentimiento. Puede leer más sobre ello en nuestra Política de Privacidad y Cookies.